Погода в Усть-Пинеге

Россия / Архангельская область     64°08′56″N   41°55′19″E
темп.,
°C
ветер,
м/с
пор.,
м/с
влажн.,
%
обл.,
%
осадки,
мм/ч
давл.,
гПа
погр.,
м
8 марта, пн
пн800:00−21св489699 0.0 1006246
03:00−23св3109587 0.0 1007269
06:00−25св3109472 0.0 1008277
09:00−24св389268 0.0 1010313
12:00−22ссв369066 0.0 1011402
15:00−21ссв478972 0.0 1012460
18:00−25ссв389386 0.0 1014325
21:00−28ссв279446 0.0 1016215
9 марта, вт
вт900:00−31ссв27950 0.0 1018179
03:00−32ссв229514 0.0 101941
06:00−32с12960 0.0 102019
09:00−28сз12910 0.0 1021122
12:00−22з238529 0.0 1022305
15:00−20з259265 0.0 1022348
18:00−23з239688 0.0 102139
21:00−22зюз269894 0.0 1021152
10 марта, ср
ср1000:00−22зюз2499100 0.1 1021129
03:00−23з12100100 0.1 102120
06:00−22з12100100 0.0 102120
09:00−17з2598100 0.1 1021166
12:00−10зсз3792100 0.0 1021399
15:00−9зсз4889100 0.1 1021434
18:00−13зсз4108853 0.0 1021331
21:00−16зсз399027 0.0 1022251
11 марта, чт
чт1100:00−18зсз310920 0.0 1022204
03:00−19з38950 0.0 1022156
06:00−20з37940 0.0 1021141
09:00−16з39830 0.0 1020358
12:00−12з49770 0.0 1019609
15:00−9з5117324 0.0 1018849
18:00−12зюз4127880 0.0 1018515
21:00−12зюз4138180 0.0 1017470
12 марта, пт
пт1200:00−13зюз41384100 0.0 1016483
03:00−13юз4118899 0.0 1015530
06:00−13юз41192100 0.0 1013477
09:00−13юз4992100 0.1 1013482
12:00−10юз4991100 0.1 1012479
15:00−8юз4989100 0.1 1012498
18:00−9ююз31092100 0.0 1011364
21:00−12ююз399479 0.0 1012235